SOYUZ-MS 11 (43756 NORAD) Tracking and Keplerian Element Data

This shows tracking and keplerian element data for the satellite.

Feedback or suggestion? Click here.




ElementValue
Catalog43756
NameSOYUZ-MS 11
Epoch Orbit3155
Epoch Day175.52729442
Epoch Year2019
RAAN324.8686
Inclination51.6345
Eccentricity0.0008556
Argument of Perigee81.3979
Mean Anonmoly356.9718
Mean Motion15.51180747
Decay Rate-4.68E-06
L11 43756U 18098A 19175.52729442 -.00000468 00000-0 00000-0 0 9998
L22 43756 51.6345 324.8686 0008556 81.3979 356.9718 15.51180747 31551

Live tracking and technical data element details for SOYUZ-MS 11 (NORAD 43756). SOYUZ-MS 11 can be tracked NOW for your location showing map with azimuth and elevation plus other details from your city location.

Track the satellite on the map from your city or location and see movement details for azimuth, elevation, latitude, longitude, range, height, and movement on the map or in text.







IsCatalogInMostPopularTable: catalog: 43756, numindb: 133
Update: records affected: 1



GetName: 43756 SOYUZ-MS 11

Hit Count: updated at: Tue, 16 Jul 2019 20:30:27 GMT